Temp
25 22 22 23 26 26 26 27 28 29 29 29 31 30 29 28 29 26 23 24 25 24 23 24 24 24 24 24 24 24 24 24 23 23 23 23 22 22 21 21 21 21 21 21 21 21 21 21 21
26 23 23 23 25 24 26 29 27 28 30 30 29 29 28 27 26 23 23 23 25 24 24 24 24 24 24 24 24 24 24 23 23 23 22 22 22 22 21 21 21 21 21 21 21 21 21 21 21
25 26 25 23 25 25 25 27 27 29 29 29 29 28 28 27 25 24 25 23 24 24 24 24 24 24 24 24 24 24 23 23 23 23 22 22 21 21 21 21 21 21 21 21 21 21 22 21 21
26 24 22 27 26 28 27 28 32 30 29 29 27 28 28 28 26 25 25 24 24 23 23 24 24 24 24 23 23 23 23 23 23 23 22 22 21 21 21 21 21 21 21 21 21 21 22 22 21
26 22 24 25 26 27 27 30 30 29 27 29 28 27 27 26 27 25 24 23 23 23 23 23 23 24 23 23 23 23 23 23 23 23 22 22 21 21 21 21 21 21 21 21 21 22 21 22 21
25 23 24 25 27 29 28 29 28 28 28 29 27 26 26 24 24 23 24 23 23 23 23 23 23 24 23 23 23 23 23 23 23 22 22 22 22 22 22 21 21 21 21 21 21 22 21 21 21
25 24 24 24 27 28 28 27 27 27 28 28 27 26 26 25 24 24 23 23 24 23 24 23 23 24 24 23 23 23 23 23 22 22 22 22 21 22 22 21 22 21 22 21 21 21 21 22 22
23 23 25 25 26 29 29 27 29 28 27 29 28 25 26 25 24 24 24 23 22 22 23 23 23 23 24 23 23 23 23 23 22 22 22 21 21 21 21 22 22 22 22 22 22 22 22 22 22
26 25 26 25 27 29 28 27 29 30 29 28 28 27 26 24 24 23 21 22 21 22 23 23 23 23 23 23 23 23 23 22 22 21 21 21 21 21 21 22 22 22 22 22 22 22 22 22 21
26 24 28 27 28 30 29 29 30 29 28 27 27 26 25 24 23 22 22 21 22 22 22 23 23 23 23 23 23 23 22 22 22 21 21 21 21 21 21 21 22 21 21 22 22 22 22 22 22
27 28 29 30 29 31 29 31 30 28 28 26 26 25 25 24 23 22 22 22 23 23 23 23 23 23 22 23 23 23 22 22 22 22 22 22 22 22 21 21 21 22 21 21 22 22 22 22 22
30 30 31 31 32 30 30 31 29 29 30 28 26 26 25 24 23 23 22 22 23 23 24 23 23 23 23 23 23 23 23 22 23 23 23 22 22 22 22 22 22 22 22 22 22 22 22 22 21
30 31 32 32 30 31 31 30 31 29 28 28 27 26 25 23 23 24 23 23 23 23 23 23 23 23 23 23 23 23 23 23 23 23 23 22 22 22 22 22 22 22 22 22 22 22 22 22 22
31 30 30 30 31 32 31 31 33 28 28 27 26 23 23 23 22 23 24 24 24 24 24 24 23 23 23 22 22 23 23 23 23 23 23 22 22 22 22 22 22 22 22 22 22 22 22 22 22
30 30 29 30 31 31 31 31 31 27 28 25 24 24 24 24 23 23 23 24 24 24 24 23 24 23 23 23 23 23 23 22 22 22 22 22 22 22 22 22 22 23 22 22 21 22 21 21 22
29 28 28 31 31 31 32 29 27 27 26 25 25 25 24 23 22 23 23 23 23 25 25 24 24 24 23 23 23 23 22 22 22 22 22 22 22 22 22 22 22 22 22 22 22 22 22 21 22
25 27 28 28 30 31 30 27 27 27 25 24 23 23 24 24 21 19 24 24 23 22 25 25 24 24 24 23 23 23 23 22 23 23 22 22 22 22 22 22 22 22 21 21 22 22 22 22 22
27 28 28 27 30 30 28 26 25 26 25 24 23 23 23 22 19 20 23 28 28 23 21 25 24 24 24 23 23 22 22 22 23 23 23 23 22 22 22 22 22 22 21 21 21 22 22 22 22
28 28 28 29 30 31 29 27 27 25 24 23 23 22 21 21 19 22 24 27 27 25 22 21 24 24 23 23 23 22 21 22 22 22 22 22 22 22 21 22 22 22 21 21 21 22 22 22 22
27 27 27 28 30 30 28 25 25 23 24 24 24 22 22 19 19 20 22 20 23 23 21 21 25 24 24 24 24 22 22 22 22 21 21 22 21 22 22 22 22 22 21 21 21 21 22 22 22
27 27 27 28 30 29 29 25 23 24 23 23 24 23 21 21 20 19 19 20 21 19 21 23 24 26 24 24 22 21 21 21 21 21 20 20 20 20 20 21 21 21 21 21 21 21 21 22 21
27 28 29 30 29 28 29 26 25 23 22 22 24 22 22 21 21 19 20 19 19 20 21 22 22 25 23 23 22 21 20 20 20 20 20 20 20 20 20 21 21 21 21 21 21 21 21 21 22
28 30 30 31 28 28 28 26 26 23 24 22 23 22 23 22 22 21 19 19 20 21 20 19 21 22 22 22 22 21 20 20 19 19 19 19 19 20 20 20 20 20 21 21 21 20 20 21 21
31 30 25 23 23 25 27 27 25 23 26 24 24 24 24 24 22 21 21 20 21 22 22 21 22 22 22 21 21 20 19 19 18 18 18 19 19 19 19 19 20 20 20 20 20 20 20 21 21
27 25 24 26 24 25 25 26 25 26 26 26 25 26 24 23 22 20 19 19 21 22 21 21 22 22 21 21 20 19 19 19 18 18 18 19 19 19 19 19 19 19 20 20 20 20 20 20 21
28 25 23 26 24 25 25 27 27 26 24 24 25 25 23 22 21 21 21 21 21 21 21 22 22 21 21 20 20 19 19 18 18 18 18 18 19 19 19 19 19 19 19 19 19 19 20 20 20
29 27 26 22 23 24 24 26 26 26 24 23 23 22 21 20 21 21 21 21 21 20 21 22 21 21 20 20 20 19 19 19 18 19 19 19 19 19 19 19 18 18 19 19 19 19 19 20 20
29 27 27 22 26 26 24 26 24 23 23 22 21 22 21 20 22 21 20 20 21 22 22 21 21 21 21 20 19 19 20 19 19 19 19 19 18 19 19 19 19 19 18 18 19 19 19 20 20
28 28 22 22 22 23 24 23 22 23 22 21 21 22 22 22 21 20 20 21 22 22 22 21 21 21 20 20 20 19 20 19 19 19 18 18 19 18 19 18 19 19 18 18 18 19 19 19 18
29 28 24 23 26 21 22 24 23 21 21 21 20 23 22 21 20 20 21 20 20 21 21 21 21 21 21 20 20 19 19 19 19 19 18 19 18 18 18 18 18 18 18 18 18 19 18 17 17
Height
750 752 754 755 780 789 805 797 779 772 767 754 748 755 762 760 766 789 761 764 769 775 781 785 787 791 795 797 799 801 803 806 808 810 810 812 814 815 816 819 820 822 824 826 827 827 827 827 827
751 752 756 761 798 822 815 785 785 775 764 756 754 756 762 771 759 763 767 769 771 776 781 785 788 791 794 798 801 802 805 807 809 811 813 814 816 817 818 819 821 823 824 827 827 828 828 828 828
753 753 759 782 802 821 816 783 774 765 760 764 764 761 763 768 763 765 766 770 776 780 784 787 790 793 796 798 802 804 806 809 810 812 814 816 817 818 819 821 822 823 823 826 828 828 829 829 830
755 756 765 786 804 793 792 772 747 763 763 762 763 770 762 761 762 765 769 773 777 781 787 790 794 796 799 801 803 806 808 809 811 813 815 817 818 820 821 822 823 824 823 825 827 828 829 830 831
756 765 791 800 801 791 781 762 758 765 772 768 767 775 769 766 765 769 773 778 780 784 789 794 796 798 799 802 804 807 809 810 812 814 815 817 819 821 821 822 824 824 824 825 827 829 829 831 833
765 770 804 816 801 782 776 763 766 767 768 770 773 772 774 772 769 773 778 782 786 786 789 794 797 799 801 803 805 808 810 811 812 814 815 817 819 820 820 822 823 824 824 826 826 828 829 831 834
772 784 806 805 796 787 775 764 772 771 772 773 767 780 777 775 774 775 780 785 787 790 791 795 799 801 803 803 805 807 809 811 812 814 816 817 819 821 822 822 822 824 825 826 826 827 829 831 834
766 781 802 801 801 789 768 771 762 768 775 765 762 779 779 771 776 778 783 787 791 794 795 797 800 800 800 803 805 806 808 810 812 814 816 817 818 820 821 821 822 823 824 826 827 828 829 831 834
757 790 800 802 794 778 765 775 762 759 765 765 765 764 762 770 777 780 784 787 791 794 796 797 802 802 803 804 804 805 807 809 812 813 815 817 819 821 822 822 822 822 824 824 825 828 829 832 834
772 794 783 771 766 767 763 765 760 765 768 771 767 762 765 769 773 780 784 787 790 794 797 798 801 801 803 804 803 804 806 809 811 813 815 817 819 821 822 822 822 822 823 824 824 827 829 830 832
769 782 765 756 756 753 762 761 757 765 771 768 770 766 769 775 781 781 780 782 787 791 795 796 798 800 803 803 802 804 805 807 810 811 813 815 816 818 820 821 821 822 823 823 823 824 827 829 831
773 760 757 750 738 751 757 752 757 756 758 752 764 765 769 778 781 783 786 783 786 791 793 795 796 796 801 803 804 803 802 805 807 809 812 813 816 817 818 819 820 821 822 823 823 823 825 828 830
768 760 752 747 743 742 743 750 753 756 751 752 760 766 774 777 781 782 783 784 786 788 791 793 794 794 796 799 801 802 802 803 806 808 810 812 814 815 816 817 818 819 822 821 822 823 824 825 828
758 756 751 749 744 743 748 750 742 760 751 754 762 770 764 761 763 779 782 784 781 786 789 790 792 793 793 797 800 801 801 803 804 806 808 810 813 814 815 816 817 818 819 820 821 822 822 823 826
755 764 755 749 748 749 743 761 760 755 753 760 767 769 769 768 754 768 780 782 786 783 790 791 790 794 795 797 797 799 800 802 804 805 806 807 809 811 813 814 815 816 818 819 819 819 821 822 823
772 773 788 754 749 745 746 785 766 752 755 764 767 769 769 767 765 769 777 780 785 787 787 793 793 791 795 797 798 798 799 799 801 802 804 805 806 808 810 810 812 814 815 817 817 817 819 820 821
790 799 788 776 750 751 760 782 763 755 758 765 769 766 763 764 774 768 762 771 778 785 790 790 793 791 792 795 798 798 798 798 797 800 800 801 802 803 806 807 809 811 813 815 816 816 817 819 820
799 793 784 787 761 756 770 779 771 764 766 769 769 767 764 771 773 767 765 757 768 780 788 789 790 792 791 794 796 797 797 796 795 796 797 798 798 799 801 803 805 807 809 812 813 813 815 817 818
779 786 790 771 758 760 770 775 766 766 769 773 774 770 770 774 777 768 766 764 762 775 786 791 787 788 792 793 796 797 796 793 792 793 792 793 794 794 796 798 800 803 805 807 809 811 813 815 816
784 791 789 771 754 760 770 784 769 770 767 765 768 771 773 774 778 774 768 766 761 777 784 788 787 787 789 792 794 796 793 790 789 789 789 789 790 790 791 792 795 797 800 803 806 808 809 812 814
782 790 785 782 763 761 766 792 786 771 771 771 768 770 773 770 776 781 776 774 773 778 785 782 785 787 789 791 793 793 792 788 786 786 785 786 786 786 787 788 790 793 796 798 802 805 807 809 811
793 762 766 770 777 796 767 812 787 779 781 778 769 774 772 769 771 776 776 780 781 783 779 785 785 787 787 789 793 792 790 789 785 784 784 784 782 782 784 785 786 789 791 794 797 801 804 807 808
775 752 760 760 778 783 782 804 790 784 787 783 770 771 768 767 767 771 775 782 784 781 787 790 789 788 788 789 791 790 790 788 785 784 783 782 779 778 779 781 783 784 787 791 794 797 800 803 806
747 756 776 785 797 815 790 795 797 795 776 771 759 756 763 764 766 771 774 775 777 776 780 785 786 787 788 792 793 790 789 787 785 784 782 779 776 774 775 777 778 780 783 787 790 794 797 799 801
760 786 819 816 826 824 791 795 790 772 765 761 758 752 761 767 770 771 777 774 772 773 775 782 784 787 790 792 792 791 790 788 787 782 779 778 776 774 773 773 775 777 780 784 788 790 793 796 798
765 778 815 826 834 817 793 799 783 764 762 757 755 762 767 773 773 774 772 773 776 778 782 783 784 786 787 789 790 791 791 790 789 783 780 779 775 773 773 773 774 776 779 782 785 788 791 793 795
759 776 766 809 813 817 809 784 768 764 769 767 767 771 766 790 772 757 766 773 778 779 781 783 785 785 787 789 790 791 792 790 788 785 782 780 776 773 772 772 773 776 778 780 783 785 788 790 793
745 749 783 803 817 819 813 796 798 783 779 776 773 769 769 777 773 771 770 769 775 776 781 785 786 786 788 791 792 792 791 791 789 787 784 782 778 774 771 771 772 775 777 779 781 783 786 788 790
754 763 781 790 803 819 825 810 767 768 769 770 766 756 750 749 770 765 768 768 775 780 780 780 781 787 788 790 792 792 792 791 791 789 787 784 781 778 774 772 772 774 776 777 779 781 783 785 787
736 750 765 796 793 807 808 798 757 757 757 758 759 751 753 760 765 762 768 763 776 779 780 781 783 784 788 789 791 793 793 792 791 791 790 787 785 781 778 775 774 773 774 777 779 781 783 784 786
Wind_Speed
9 2 2 1 6 6 7 7 8 6 5 4 3 2 3 3 1 3 11 23 33 35 30 28 27 27 25 25 25 24 24 23 22 22 22 21 20 20 19 16 15 14 12 11 10 9 10 11 13
5 5 2 2 6 5 3 6 7 4 6 3 8 7 7 5 3 9 14 20 36 36 32 30 28 27 26 25 24 24 22 22 21 20 20 20 20 18 17 17 15 14 12 11 11 9 9 12 14
2 3 2 5 4 4 4 5 7 3 6 7 2 4 1 1 5 12 8 27 34 34 32 30 29 26 25 24 23 22 22 20 20 19 17 16 16 15 15 13 12 12 13 10 10 9 9 12 13
2 4 4 4 6 1 6 11 9 5 3 3 1 1 1 3 12 14 22 30 34 33 31 30 28 26 24 23 22 21 20 20 18 17 15 14 14 13 13 11 9 9 10 10 9 9 9 10 13
3 2 4 5 4 4 6 13 6 3 1 2 1 1 4 6 11 21 28 30 33 31 30 28 27 25 23 22 22 21 20 18 17 15 15 14 13 12 11 9 8 7 7 9 9 8 9 9 11
3 3 5 3 2 4 6 13 5 2 2 2 3 3 3 11 25 26 28 29 29 32 31 28 26 24 22 22 21 20 20 18 16 15 14 14 13 12 11 10 8 7 5 6 8 8 8 10 9
5 4 4 4 2 4 5 4 4 3 5 2 5 4 1 6 19 26 24 27 27 29 30 27 25 23 21 21 21 21 20 19 17 15 15 14 13 11 10 9 8 7 6 6 7 8 10 11 10
4 4 6 1 3 4 2 4 1 3 3 2 4 5 5 7 22 21 20 21 23 27 28 27 26 24 23 22 21 22 21 20 18 17 15 13 13 12 11 11 9 8 7 7 6 7 8 9 11
3 4 1 8 6 5 6 5 3 4 4 1 2 3 10 25 25 23 21 22 22 24 26 25 24 22 21 21 21 20 20 20 19 17 16 14 13 12 11 11 9 8 8 7 7 7 7 8 10
4 2 6 6 4 4 8 8 8 4 4 3 3 7 25 25 24 20 16 16 22 22 23 23 24 23 22 22 21 20 19 19 19 17 16 15 13 13 13 10 9 8 8 7 7 8 8 9 10
3 3 3 6 10 7 8 13 9 5 4 6 8 14 16 18 14 15 16 23 28 25 22 23 23 23 22 22 22 20 20 19 19 19 18 17 15 14 13 12 10 9 9 9 9 9 9 9 10
2 6 4 8 11 7 7 4 7 10 3 9 11 14 14 12 10 13 14 20 24 23 22 21 22 23 22 21 21 21 22 20 20 19 19 18 17 16 15 13 11 10 11 11 11 10 10 10 9
4 3 3 6 9 6 8 10 7 13 10 18 17 14 12 8 6 6 16 22 22 23 23 23 23 23 22 22 22 20 20 19 20 20 19 19 19 18 18 16 13 12 13 12 13 11 11 11 11
3 7 9 7 6 3 4 3 3 4 14 19 16 12 13 14 14 3 11 20 25 24 25 25 24 23 22 22 20 19 20 20 20 20 20 20 21 18 17 13 14 12 13 13 13 12 12 12 13
6 7 9 5 3 6 4 5 3 10 16 17 14 12 7 2 22 13 3 15 24 25 24 26 24 22 21 20 19 18 19 20 20 21 21 22 22 21 20 17 16 15 15 15 14 12 12 13 14
5 3 4 2 1 4 3 4 2 14 18 14 11 7 6 5 8 12 6 12 16 24 24 23 23 22 21 20 20 20 21 21 21 21 22 21 23 24 24 23 21 18 16 17 15 14 14 16 15
4 5 3 8 5 1 7 5 7 10 15 13 8 9 7 6 11 15 15 7 4 11 22 23 24 22 21 19 18 16 16 20 19 23 23 23 23 24 24 22 20 18 18 20 16 15 15 16 16
4 4 3 5 2 2 7 2 2 5 10 11 8 6 6 8 9 10 5 9 9 14 15 27 26 23 18 17 16 18 17 17 17 20 22 23 22 21 24 24 23 20 20 20 20 19 18 17 15
4 5 6 12 5 3 6 8 15 10 7 9 5 8 5 7 6 15 16 24 28 28 15 26 27 24 20 18 18 17 18 17 18 18 18 19 21 22 21 26 24 22 21 21 22 21 17 17 14
5 5 11 10 2 4 4 4 7 9 5 14 13 7 6 5 5 3 15 27 37 26 22 20 24 20 20 19 18 15 13 15 14 14 15 18 18 15 23 25 25 23 22 21 22 22 20 18 16
5 5 6 9 4 2 2 4 4 4 1 1 9 2 4 8 9 8 10 17 9 19 17 18 19 19 19 16 14 11 12 15 14 14 14 12 13 16 16 19 24 23 24 24 23 23 22 22 20
6 8 9 7 2 2 2 3 6 5 4 7 14 6 6 10 8 11 13 11 12 15 17 26 24 18 16 12 10 10 9 13 14 15 15 14 14 14 14 18 21 23 25 26 25 25 25 22 20
11 7 4 4 3 3 2 3 3 4 4 7 11 7 12 9 11 13 13 12 21 20 26 21 17 13 10 6 6 6 8 11 14 16 14 14 14 16 16 18 18 22 25 25 25 24 26 26 23
10 3 6 5 3 2 5 3 2 4 5 5 10 12 10 7 7 8 11 13 12 10 14 9 16 11 5 3 3 3 5 8 10 11 11 12 12 9 12 16 17 18 21 22 23 25 24 24 26
5 6 3 4 4 5 2 2 7 5 4 3 11 12 6 3 3 6 6 10 6 7 8 18 17 12 8 5 1 5 6 8 9 5 5 7 7 4 6 12 15 17 19 20 21 22 24 25 25
5 8 6 6 4 4 2 3 3 2 5 6 6 11 11 9 4 3 3 3 7 11 20 21 17 15 10 5 1 3 4 5 6 8 8 7 6 5 3 6 10 13 15 17 17 19 21 20 20
3 4 4 7 3 2 3 5 4 2 8 14 15 16 19 18 9 8 6 9 15 19 22 18 16 14 10 6 4 3 4 8 9 11 12 11 9 5 3 1 5 9 12 14 15 16 18 19 23
6 5 4 3 4 3 4 3 5 6 5 5 15 19 16 15 4 4 6 14 19 24 21 18 16 14 10 7 5 6 4 6 9 10 12 13 12 10 4 1 3 6 9 10 12 13 13 14 15
2 1 6 6 4 6 3 6 6 11 12 14 15 18 20 21 10 8 8 17 23 24 21 20 18 16 13 10 8 6 5 5 8 9 11 12 11 11 10 8 4 4 6 9 10 11 10 11 15
4 6 6 5 4 1 4 6 2 9 11 9 8 13 15 9 6 9 10 22 21 24 22 21 18 17 15 12 9 8 4 3 6 7 9 9 11 11 12 11 11 9 7 7 7 9 7 11 16
Wind_Direction
350 290 51 349 56 60 34 2 323 334 27 344 67 120 148 25 166 214 150 156 164 165 164 163 158 155 153 150 147 144 142 141 142 141 140 140 141 142 139 139 141 146 147 147 141 136 140 142 137
2 111 107 34 83 68 351 329 347 311 17 45 54 53 34 359 56 109 128 169 166 165 165 164 162 159 157 156 153 149 146 145 146 144 143 143 141 137 137 140 140 144 145 148 141 137 139 138 140
154 199 66 97 85 123 177 260 247 254 312 315 81 28 339 109 76 148 171 165 165 166 168 168 166 162 162 161 159 156 152 150 148 146 143 145 145 140 137 139 139 148 146 148 146 145 144 141 146
128 5 32 83 149 49 168 248 234 103 343 287 25 60 309 352 161 172 159 166 167 169 173 171 170 167 167 166 166 164 160 156 153 150 148 146 149 147 142 142 146 154 152 156 159 159 144 146 151
78 63 53 68 34 123 233 230 345 343 34 21 342 246 17 21 166 154 160 166 169 170 174 174 175 174 173 172 172 171 169 160 159 157 155 153 156 155 151 150 157 157 161 170 172 180 156 155 158
35 93 57 74 225 175 225 232 289 317 317 341 91 71 40 123 130 148 161 170 175 171 173 176 179 179 179 177 175 175 174 169 168 165 164 163 163 166 162 161 165 162 168 182 183 178 171 162 171
105 68 104 181 315 278 228 170 233 346 271 314 162 82 50 136 142 150 162 173 177 177 173 177 182 183 182 179 177 178 179 177 176 176 174 172 172 172 170 168 166 173 178 191 193 185 175 169 175
106 93 119 312 210 268 291 183 54 146 281 10 167 157 169 167 156 150 161 170 174 179 179 181 184 183 181 181 180 181 181 183 183 183 182 181 178 181 180 178 179 180 184 189 195 199 185 177 182
126 55 359 165 191 232 155 205 137 191 212 282 191 206 132 138 146 144 140 157 171 179 184 187 187 184 184 183 183 185 185 187 188 186 185 185 191 188 192 192 189 189 194 192 191 202 205 185 190
87 113 217 178 208 216 173 192 177 195 176 186 205 83 128 138 147 141 145 150 170 181 190 192 193 192 191 189 188 189 188 191 191 190 189 194 199 199 199 201 205 203 201 198 198 204 212 198 191
171 205 251 236 194 202 184 216 183 203 219 198 194 142 133 132 144 151 163 171 182 188 191 195 196 201 201 201 198 194 195 196 196 195 195 201 200 200 207 210 212 217 214 213 204 211 217 207 200
303 251 242 286 290 171 200 165 205 183 219 142 154 130 128 133 155 166 175 179 188 189 192 198 201 200 207 212 208 203 202 199 203 205 209 204 205 203 207 214 212 217 217 224 217 211 217 219 212
207 274 263 276 304 179 189 212 187 183 97 121 127 118 109 86 43 185 187 189 190 192 198 203 203 203 205 208 211 209 211 211 211 213 213 211 210 212 212 214 216 218 224 227 224 215 217 223 219
265 280 290 212 258 5 186 94 115 69 131 117 120 129 163 154 136 9 220 203 196 200 208 206 207 207 204 211 216 216 216 219 218 220 218 220 221 220 215 214 222 225 229 233 226 225 218 227 233
304 327 341 231 211 201 147 38 67 158 134 130 131 177 164 227 138 139 313 252 215 205 214 213 207 213 214 218 223 224 223 223 224 227 227 227 229 228 228 235 234 241 239 234 229 221 230 228 230
356 34 1 15 230 242 98 215 224 168 139 146 148 191 238 167 129 125 44 348 279 229 216 219 217 212 221 229 234 228 227 229 227 233 233 233 235 235 238 242 241 238 236 232 228 220 226 231 230
346 250 229 328 301 71 52 144 224 185 148 150 171 209 227 218 36 61 123 70 342 291 233 216 220 217 218 224 234 231 237 234 235 236 240 237 236 243 237 237 233 235 233 227 229 227 226 230 230
227 285 308 259 277 340 91 59 81 184 163 157 200 222 241 88 89 86 121 158 272 281 271 221 212 216 217 218 226 229 231 236 237 241 242 242 240 243 235 235 231 230 232 231 229 232 225 228 230
331 310 288 280 246 334 118 165 192 191 170 169 207 237 263 102 142 109 146 187 203 234 268 249 210 210 211 216 229 233 231 235 240 242 243 240 246 248 246 234 235 228 232 233 227 229 224 224 219
232 278 285 294 217 169 84 180 222 188 221 174 188 208 189 152 141 194 191 190 205 225 276 274 225 212 214 227 236 246 251 259 261 259 256 251 246 245 239 234 229 223 229 234 230 228 228 231 214
242 203 244 235 357 19 12 96 253 259 314 204 229 136 197 171 172 186 199 204 177 176 248 248 254 239 224 228 248 256 271 280 285 285 279 263 257 250 246 237 228 225 226 231 230 225 227 225 219
282 214 229 240 75 283 62 267 255 216 189 233 231 187 206 215 192 191 220 217 219 174 193 241 253 229 210 215 240 267 285 288 295 299 296 280 265 256 243 235 234 231 227 227 230 230 227 228 219
235 284 232 218 125 102 295 85 289 65 242 246 254 191 212 217 215 217 225 200 204 182 185 237 228 204 189 216 255 273 281 286 296 298 293 291 276 268 250 236 232 230 230 229 231 228 227 230 230
265 180 43 57 80 25 275 134 276 188 239 212 235 233 211 215 196 220 230 225 214 162 180 226 181 178 172 217 243 298 310 315 315 306 306 316 300 266 244 228 225 226 227 227 230 229 227 227 229
91 51 351 359 13 223 249 42 235 210 248 169 225 242 258 29 214 159 199 191 209 199 203 188 173 161 171 181 313 346 337 337 299 307 330 329 343 321 252 220 219 221 224 227 229 229 230 231 235
197 160 156 193 188 247 280 252 256 281 326 274 125 78 58 19 5 240 236 167 187 191 185 175 170 164 167 162 40 14 26 11 349 35 14 352 5 11 351 231 222 224 222 219 225 227 233 238 241
199 207 183 104 50 74 265 289 330 98 50 72 78 82 75 329 234 149 140 179 181 184 168 176 173 167 172 162 149 112 67 50 38 39 36 27 17 6 34 192 222 226 217 216 221 225 231 239 243
157 159 84 13 130 226 281 260 228 131 169 154 114 116 119 228 295 121 170 159 170 172 175 177 177 171 169 181 172 153 97 58 50 44 36 30 36 36 51 133 184 220 226 223 222 229 234 244 241
31 232 45 116 129 163 191 260 210 173 174 183 168 160 158 212 194 187 179 155 174 181 174 172 170 175 174 178 179 159 128 81 49 43 40 35 41 43 55 68 113 177 215 215 218 220 227 237 221
172 214 145 127 232 130 156 266 40 170 180 174 181 179 192 169 188 195 178 160 179 183 177 176 178 176 181 176 172 166 137 86 58 50 41 40 54 62 65 71 83 102 138 159 170 176 191 180 177